CST,Max TemperatureF,Mean TemperatureF,Min TemperatureF,Max Dew PointF,MeanDew PointF,Min DewpointF,Max Humidity, Mean Humidity, Min Humidity, Max Sea Level PressureIn, Mean Sea Level PressureIn, Min Sea Level PressureIn, Max VisibilityMiles, Mean VisibilityMiles, Min VisibilityMiles, Max Wind SpeedMPH, Mean Wind SpeedMPH, Max Gust SpeedMPH,PrecipitationIn, CloudCover, Events, WindDirDegrees
2013-1-1,70,62,55,65,61,53,100,95,78,30.10,30.01,29.96,10,7,0,17,7,24,0.08,6,Fog-Rain,175
2013-1-2,55,48,42,54,45,41,97,86,76,30.22,30.13,30.03,10,10,6,17,11,22,0.05,8,Rain,350
2013-1-3,46,41,36,43,36,29,100,83,60,30.39,30.28,30.21,10,10,8,15,10,,0.20,5,Rain,349
2013-1-4,55,44,33,34,30,25,85,63,32,30.46,30.39,30.34,10,10,10,13,7,,0.00,0,,352
2013-1-5,52,46,39,39,34,31,77,60,47,30.39,30.33,30.27,10,10,10,10,6,,0.00,3,,14
2013-1-6,50,47,44,46,43,39,93,83,66,30.30,30.25,30.22,10,10,5,12,6,,0.05,6,Rain,358
2013-1-7,61,50,39,44,39,33,89,70,35,30.35,30.28,30.21,10,10,10,10,7,,0.00,0,,34
2013-1-8,66,57,48,57,50,41,97,80,67,30.28,30.21,30.17,10,10,10,7,5,,0.00,6,,47
2013-1-9,64,62,60,63,62,61,100,99,93,30.27,30.24,30.19,10,4,0,9,5,,0.00,8,Fog,91
2013-1-10,66,62,57,64,62,57,100,97,87,30.25,30.19,30.06,10,5,0,18,9,23,0.28,7,Fog-Rain-Thunderstorm,120
2013-1-11,73,66,59,67,63,59,100,96,81,30.17,30.12,30.09,10,6,0,10,5,,0.00,6,Fog,153
2013-1-12,72,68,64,67,66,64,100,96,81,30.13,30.07,29.99,10,5,0,14,9,20,0.00,8,Fog,156
2013-1-13,70,67,64,67,66,64,100,98,87,30.04,30.00,29.97,10,4,0,14,9,21,0.01,8,Fog-Rain,173
2013-1-14,64,55,46,64,54,46,100,97,84,30.14,30.09,30.05,10,6,1,14,10,,0.01,8,Rain,353
2013-1-15,66,56,46,67,57,46,100,99,88,30.08,30.01,29.95,8,2,0,9,5,,0.36,8,Fog-Rain,3
2013-1-16,59,51,43,57,49,42,100,96,89,30.07,30.02,29.96,10,7,1,14,9,,0.14,8,Rain,335
2013-1-17,52,44,37,41,36,32,97,80,50,30.38,30.18,30.07,10,9,5,24,11,36,0.01,6,Rain,299
2013-1-18,57,47,37,40,36,34,96,73,44,30.53,30.44,30.38,10,10,8,18,11,24,0.00,0,,349
2013-1-19,62,49,36,45,39,34,100,76,44,30.42,30.34,30.27,10,10,7,7,5,,0.00,2,,356
2013-1-20,63,50,37,48,44,37,100,80,48,30.30,30.22,30.15,10,9,5,8,3,,0.00,0,,278
2013-1-21,64,54,43,47,43,40,97,69,40,30.23,30.19,30.14,10,10,10,9,5,,0.01,0,,349
2013-1-22,57,48,39,38,33,27,86,63,35,30.39,30.33,30.24,10,10,10,10,7,,0.00,0,,14
2013-1-23,62,50,37,50,43,35,96,79,58,30.43,30.36,30.32,10,10,9,9,3,,0.00,1,,201
2013-1-24,71,58,44,55,52,44,100,80,55,30.36,30.30,30.24,10,9,4,12,4,,0.00,2,,232
2013-1-25,69,56,44,57,51,44,100,89,57,30.31,30.25,30.19,10,6,0,13,2,17,0.00,1,Fog,173
2013-1-26,66,60,53,61,56,53,100,93,78,30.28,30.24,30.19,10,7,0,8,4,,0.01,3,Fog,74
2013-1-27,70,58,46,60,53,46,100,95,70,30.34,30.28,30.26,10,4,0,9,2,,0.01,2,Fog,51
2013-1-28,72,62,51,63,57,52,100,96,68,30.31,30.26,30.17,10,4,0,10,1,18,0.01,6,Fog,123
2013-1-29,71,66,62,67,65,62,100,98,87,30.16,30.03,29.90,10,4,0,15,9,23,0.10,8,Fog-Rain,161
2013-1-30,73,59,44,70,58,28,100,89,52,30.14,29.83,29.74,10,5,0,21,11,33,0.44,6,Fog-Rain,227
2013-1-31,59,48,37,38,31,22,82,56,24,30.34,30.25,30.16,10,10,10,15,8,24,0.00,0,,292